Date String (YYYY-MM-DD hh:mm:ss) UTC,Instrument flags,absolute air pressure of the measurement (hPa),sample flow rate (lpm),inlet stack bypass flow (lpm),air temperature of the measurement (°C),ambient temperature measured by the external sensor (°C),aerosol sample conditioner tube jacket temperature (°C),OPC LED temperature (°C),internal box temperature (°C),relative humidity of the measurement (%),span deviation,mass concentration of particles derived from Lorenz-Mie calculation of OPC scattering (μg/m³),mass concentration of particles derived from Lorenz-Mie calculation of OPC scattering (μg/m³),mass concentration of particles derived from Lorenz-Mie calculation of OPC scattering (μg/m³)
DateTimeUTC,F1_M11,P_M11,Q1_M11,Q2_M11,T1_M11,T2_M11,T3_M11,T4_M11,T5_M11,U1_M11,ZSPAN_M11,X0_M11,X2_M11,X1_M11
2024-05-27 16:00:00,SystemResetWarning,0833.2,5.00,000.00,029.8,029.0,000.0,038.1,031.5,015.3,0000.0,0010.89,0003.73,0003.12
2024-05-27 16:01:00,SystemResetWarning,0833.3,5.00,000.00,029.8,029.0,000.0,038.1,031.5,015.7,0000.0,0010.95,0003.72,0003.12
2024-05-27 16:02:00,SystemResetWarning,0833.2,5.01,000.00,029.8,029.0,000.0,038.1,031.5,015.4,0000.0,0011.49,0003.73,0003.12
2024-05-27 16:03:00,SystemResetWarning,0833.2,5.00,000.00,029.8,029.0,000.0,038.1,031.5,015.8,0000.0,0012.43,0003.79,0003.12
2024-05-27 16:04:00,SystemResetWarning,0833.2,5.00,000.00,029.8,029.0,000.0,038.1,031.5,016.2,0000.0,0011.30,0003.77,0003.13
2024-05-27 16:05:00,SystemResetWarning,0833.2,5.00,000.00,029.8,029.1,000.0,038.1,031.5,016.0,0000.0,0010.87,0003.74,0003.14
2024-05-27 16:06:00,SystemResetWarning,0833.2,5.00,000.00,029.9,029.1,000.0,038.1,031.5,016.2,0000.0,0010.85,0003.77,0003.15
2024-05-27 16:07:00,SystemResetWarning,0833.2,4.99,000.00,029.9,029.1,000.0,038.1,031.5,015.9,0000.0,0010.74,0003.79,0003.16
2024-05-27 16:08:00,SystemResetWarning,0833.2,4.99,000.00,029.9,029.1,000.0,038.1,031.5,016.5,0000.0,0010.70,0003.83,0003.18
2024-05-27 16:09:00,SystemResetWarning,0833.2,5.00,000.00,029.9,029.1,000.0,038.2,031.6,016.1,0000.0,0010.84,0003.91,0003.19
2024-05-27 16:10:00,SystemResetWarning,0833.2,4.99,000.00,029.9,029.1,000.0,038.2,031.6,016.3,0000.0,0010.93,0003.93,0003.20
2024-05-27 16:11:00,SystemResetWarning,0833.2,5.01,000.00,029.9,029.1,000.0,038.2,031.6,015.7,0000.0,0010.01,0003.92,0003.21
2024-05-27 16:12:00,SystemResetWarning,0833.2,5.01,000.00,029.9,029.1,000.0,038.2,031.6,015.6,0000.0,0010.06,0003.93,0003.23
2024-05-27 16:13:00,SystemResetWarning,0833.2,5.00,000.00,029.9,029.1,000.0,038.2,031.6,015.8,0000.0,0009.58,0003.93,0003.24
2024-05-27 16:14:00,SystemResetWarning,0833.2,5.00,000.00,029.9,029.1,000.0,038.2,031.6,015.5,0000.0,0008.56,0003.90,0003.24
2024-05-27 16:15:00,SystemResetWarning,0833.2,4.99,000.00,029.9,029.1,000.0,038.2,031.6,015.9,0000.0,0009.07,0003.91,0003.24
2024-05-27 16:16:00,SystemResetWarning,0833.2,4.99,000.00,029.9,029.2,000.0,038.2,031.6,015.5,0000.0,0009.39,0003.92,0003.25
2024-05-27 16:17:00,SystemResetWarning,0833.2,5.01,000.00,030.0,029.2,000.0,038.2,031.7,015.6,0000.0,0009.33,0003.89,0003.25
2024-05-27 16:18:00,SystemResetWarning,0833.2,5.01,000.00,030.0,029.2,000.0,038.2,031.6,015.4,0000.0,0009.42,0003.84,0003.25
2024-05-27 16:19:00,SystemResetWarning,0833.2,5.00,000.00,030.0,029.2,000.0,038.2,031.7,015.9,0000.0,0009.74,0003.80,0003.24
2024-05-27 16:20:00,SystemResetWarning,0833.2,4.99,000.00,030.0,029.2,000.0,038.2,031.6,015.8,0000.0,0009.65,0003.73,0003.24
2024-05-27 16:21:00,SystemResetWarning,0833.2,5.00,000.00,030.0,029.2,000.0,038.2,031.7,016.5,0000.0,0009.32,0003.71,0003.24
2024-05-27 16:22:00,SystemResetWarning,0833.2,5.00,000.00,030.0,029.2,000.0,038.3,031.7,016.3,0000.0,0010.00,0003.69,0003.24
2024-05-27 16:23:00,SystemResetWarning,0833.2,5.00,000.00,030.0,029.2,000.0,038.3,031.7,016.0,0000.0,0010.46,0003.67,0003.23
2024-05-27 16:24:00,SystemResetWarning,0833.2,5.00,000.00,030.0,029.2,000.0,038.3,031.7,015.7,0000.0,0011.32,0003.67,0003.23
2024-05-27 16:25:00,SystemResetWarning,0833.2,5.01,000.00,030.0,029.2,000.0,038.3,031.7,015.8,0000.0,0011.59,0003.70,0003.23
2024-05-27 16:26:00,SystemResetWarning,0833.2,5.00,000.00,030.0,029.3,000.0,038.3,031.7,016.0,0000.0,0011.61,0003.72,0003.24
2024-05-27 16:27:00,SystemResetWarning,0833.2,5.01,000.00,030.1,029.3,000.0,038.3,031.7,015.1,0000.0,0011.41,0003.73,0003.24
2024-05-27 16:28:00,SystemResetWarning,0833.2,5.01,000.00,030.1,029.3,000.0,038.3,031.8,015.4,0000.0,0011.67,0003.74,0003.24
2024-05-27 16:29:00,SystemResetWarning,0833.2,5.00,000.00,030.1,029.3,000.0,038.3,031.8,015.7,0000.0,0011.68,0003.75,0003.23
2024-05-27 16:30:00,SystemResetWarning,0833.2,5.00,000.00,030.1,029.3,000.0,038.3,031.8,015.1,0000.0,0011.51,0003.78,0003.22
2024-05-27 16:31:00,SystemResetWarning,0833.2,5.00,000.00,030.1,029.3,000.0,038.3,031.7,015.0,0000.0,0011.44,0003.78,0003.21
2024-05-27 16:32:00,SystemResetWarning,0833.2,5.00,000.00,030.1,029.3,000.0,038.3,031.8,015.7,0000.0,0011.83,0003.77,0003.20
2024-05-27 16:33:00,SystemResetWarning,0833.2,5.00,000.00,030.1,029.3,000.0,038.4,031.8,016.2,0000.0,0011.29,0003.78,0003.19
2024-05-27 16:34:00,SystemResetWarning,0833.2,5.00,000.00,030.1,029.4,000.0,038.4,031.8,015.1,0000.0,0011.04,0003.78,0003.19
2024-05-27 16:35:00,SystemResetWarning,0833.2,5.01,000.00,030.1,029.4,000.0,038.4,031.8,015.1,0000.0,0010.08,0003.80,0003.19
2024-05-27 16:36:00,SystemResetWarning,0833.2,5.00,000.00,030.1,029.4,000.0,038.4,031.9,015.2,0000.0,0009.81,0003.74,0003.17
2024-05-27 16:37:00,SystemResetWarning,0833.2,4.99,000.00,030.1,029.4,000.0,038.4,031.9,016.0,0000.0,0009.14,0003.68,0003.15
2024-05-27 16:38:00,SystemResetWarning,0833.2,5.00,000.00,030.1,029.4,000.0,038.4,031.9,014.9,0000.0,0009.54,0003.65,0003.14
2024-05-27 16:39:00,SystemResetWarning,0833.2,5.00,000.00,030.2,029.4,000.0,038.4,031.9,014.4,0000.0,0009.79,0003.63,0003.14
2024-05-27 16:40:00,SystemResetWarning,0833.2,5.00,000.00,030.2,029.4,000.0,038.4,031.9,014.4,0000.0,0009.99,0003.61,0003.13
2024-05-27 16:41:00,SystemResetWarning,0833.2,4.99,000.00,030.2,029.4,000.0,038.4,031.9,014.3,0000.0,0009.70,0003.58,0003.11
2024-05-27 16:42:00,SystemResetWarning,0833.2,5.00,000.00,030.2,029.4,000.0,038.4,031.9,015.3,0000.0,0009.58,0003.55,0003.10
2024-05-27 16:43:00,SystemResetWarning,0833.2,5.00,000.00,030.2,029.4,000.0,038.4,031.9,015.1,0000.0,0009.15,0003.53,0003.09
2024-05-27 16:44:00,SystemResetWarning,0833.2,5.01,000.00,030.2,029.5,000.0,038.5,031.9,014.3,0000.0,0008.69,0003.55,0003.08
2024-05-27 16:45:00,SystemResetWarning,0833.2,5.00,000.00,030.2,029.5,000.0,038.5,031.9,014.5,0000.0,0009.12,0003.52,0003.06
2024-05-27 16:46:00,SystemResetWarning,0833.3,5.00,000.00,030.2,029.5,000.0,038.5,031.9,015.1,0000.0,0009.33,0003.49,0003.04
2024-05-27 16:47:00,SystemResetWarning,0833.3,5.00,000.00,030.2,029.5,000.0,038.5,031.9,014.8,0000.0,0009.37,0003.52,0003.04
2024-05-27 16:48:00,SystemResetWarning,0833.3,5.00,000.00,030.2,029.5,000.0,038.5,031.9,014.9,0000.0,0009.43,0003.55,0003.02
2024-05-27 16:49:00,SystemResetWarning,0833.3,5.00,000.00,030.3,029.5,000.0,038.5,031.9,015.3,0000.0,0008.87,0003.53,0002.99
2024-05-27 16:50:00,SystemResetWarning,0833.2,5.01,000.00,030.3,029.5,000.0,038.5,032.0,014.8,0000.0,0008.22,0003.51,0002.95
2024-05-27 16:51:00,SystemResetWarning,0833.2,5.00,000.00,030.3,029.5,000.0,038.5,032.0,014.7,0000.0,0008.37,0003.56,0002.97
2024-05-27 16:52:00,SystemResetWarning,0833.2,5.00,000.00,030.3,029.5,000.0,038.5,031.9,014.3,0000.0,0008.45,0003.56,0002.99
2024-05-27 16:53:00,SystemResetWarning,0833.2,5.00,000.00,030.3,029.5,000.0,038.5,032.0,014.7,0000.0,0008.84,0003.59,0003.00
2024-05-27 16:54:00,SystemResetWarning,0833.2,4.99,000.00,030.3,029.6,000.0,038.5,032.0,014.6,0000.0,0008.87,0003.60,0002.99
2024-05-27 16:55:00,SystemResetWarning,0833.2,4.99,000.00,030.3,029.6,000.0,038.6,032.0,014.1,0000.0,0009.41,0003.59,0002.98
2024-05-27 16:56:00,SystemResetWarning,0833.2,5.00,000.00,030.3,029.6,000.0,038.6,032.0,014.1,0000.0,0009.00,0003.59,0002.98
2024-05-27 16:57:00,SystemResetWarning,0833.2,5.00,000.00,030.3,029.6,000.0,038.6,032.0,014.5,0000.0,0009.12,0003.59,0002.98
2024-05-27 16:58:00,SystemResetWarning,0833.2,5.01,000.00,030.4,029.6,000.0,038.6,032.0,014.5,0000.0,0009.05,0003.59,0002.98
2024-05-27 16:59:00,SystemResetWarning,0833.2,5.00,000.00,030.4,029.6,000.0,038.6,032.0,014.9,0000.0,0009.34,0003.61,0003.00
